Regional Weather Roundup
Issued by NWS

Home | Current Version | Previous Version | Graphics & Text | Print | Product List | Glossary On
Versions: 1 2 3 4 5 6 7 8 9 10 11 12 13 14 15 16 17 18 19 20 21 22 23 24 25 26 27 28 29 30 31 32 33 34 35 36 37 38 39 40 41 42 43 44 45 46 47 48 49 50
000
ASUS43 KDTX 231410
RWRMI
MICHIGAN HOURLY REGIONAL WEATHER ROUNDUP
NATIONAL WEATHER SERVICE DETROIT/PONTIAC MI
1000 AM EDT SAT AUG 23 2014

NOTE: "FAIR" INDICATES FEW OR NO CLOUDS BELOW 12,000 FEET WITH NO
SIGNIFICANT WEATHER AND/OR OBSTRUCTION TO VISIBILITY.

MIZ047>049-052>055-059>063-066>070-074>076-081>083-231500-
SOUTHEAST LOWER MICHIGAN

CITY           SKY/WX    TMP DP  RH WIND       PRES   REMARKS
ADRIAN         SUNNY     73  64  73 E3        30.05R
ALMA           CLOUDY    66  65  97 NE8       30.07S FOG
ANN ARBOR      PTSUNNY   76  64  66 VRB3      30.04S
BAD AXE        CLOUDY    64  64 100 NE6       30.09R
DETROIT CITY   CLOUDY    67  64  90 E8        30.05S FOG
DETROIT        CLOUDY    69  62  78 E5        30.05S
FLINT          MOSUNNY   69  62  78 NE5       30.06S
GROSSE ILE     CLOUDY    70  66  88 NE7       30.03S FOG
HILLSDALE      SUNNY     75  69  81 E3        30.05R
HOWELL         SUNNY     70  64  80 N3        30.05S

CITY           SKY/WX    TMP DP  RH WIND       PRES   REMARKS
JACKSON        SUNNY     74  63  68 VRB3      30.05R
LAMBERTVILLE   CLOUDY    72  66  83 E6        30.04R
LANSING        SUNNY     71  62  73 VRB6      30.06S
LAPEER         NOT AVBL
MASON          SUNNY     72  63  73 NE5       30.05S
MONROE         CLOUDY    72  66  83 NE3       30.03R
MT. CLEMENS    CLOUDY    66  65  97 N6        30.04S FOG
PONTIAC        MOSUNNY   69  63  81 CALM      30.06R
PORT HOPE        N/A     63  62  97 NE7       30.07S
PORT HURON     CLOUDY    66  66 100 N5        30.06R FOG
TRI CITIES     CLOUDY    70  65  84 NE8       30.08R
YPSILANTI      SUNNY     76  65  68 NE6       30.05R
$$
MIZ043>046-050>051-056>058-064>065-071>073-077>080-231500-
SOUTHWEST LOWER MICHIGAN

CITY           SKY/WX    TMP DP  RH WIND       PRES   REMARKS
BATTLE CREEK   MOSUNNY   75  67  76 E6        30.04R
BENTON HARBOR  CLOUDY    75  71  87 E7        30.01R FOG
BIG RAPIDS     SUNNY     70  66  86 SE6       30.06S
COLDWATER      CLOUDY    74  69  84 SE6       30.04R
HOLLAND        SUNNY     76  69  79 E7        30.04R
GRAND RAPIDS   PTSUNNY   72  67  84 E10       30.04S
KALAMAZOO      PTSUNNY   76  69  79 VRB3      30.03S
MARSHALL       MOSUNNY   74  66  78 SE3       30.03S
MUSKEGON       MOSUNNY   75  66  73 E8        30.04R
$$
MIZ016>042-231500-
NORTHERN LOWER MICHIGAN

CITY           SKY/WX    TMP DP  RH WIND       PRES   REMARKS
ALPENA         FOG       63  63 100 CALM      30.11R VSB 1/2
BEAVER ISLAND  CLOUDY    70  65  83 E8        30.08S
BELLAIRE       SUNNY     73  63  69 E3        30.06S
CADILLAC       SUNNY     71  62  73 E7        30.08S
CHARLEVOIX     SUNNY     72  65  78 SE8       30.10S
FRANKFORT      SUNNY     76  61  60 SE7       30.05R
GAYLORD        MOSUNNY   66  62  87 E5        30.11R
GRAYLING       SUNNY     70  64  81 E7        30.10S
HARBOR SPRINGS SUNNY     71  64  76 E10       30.08F
HOUGHTON LAKE  SUNNY     71  63  75 E10       30.09S
MANISTEE       SUNNY     72  63  73 E8        30.06R
OSCODA         CLOUDY    63  63 100 NE8       30.09S FOG
PELLSTON       MOSUNNY   71  64  78 E8        30.10S
TRAVERSE CITY  MOSUNNY   73  63  70 VRB3      30.05S
$$
MIZ007>008-015-231500-
EASTERN UPPER MICHIGAN

CITY           SKY/WX    TMP DP  RH WIND       PRES   REMARKS
KINROSS        CLOUDY    66  66 100 E8        30.11S
MACKINAC ISLAN FOG       62  62 100 E7        30.10S VSB<1/4
NEWBERRY       CLOUDY    68  64  86 E5        30.09S
S. S. MARIE    PTSUNNY   69  64  84 SE6       30.11R
$$
MIZ004>006-011>014-085-231500-
CENTRAL UPPER MICHIGAN

CITY           SKY/WX    TMP DP  RH WIND       PRES   REMARKS
MANISTIQUE     CLOUDY    67  64  90 E3        30.07S
ESCANABA       CLOUDY    66  63  88 E7        30.05S
MENOMINEE      CLOUDY    70  64  83 SE8       30.03R
SAWYER-GWINN   DRIZZLE   66  66 100 E5        30.06S
$$
MIZ001>003-009>011-084-231500-
WESTERN UPPER MICHIGAN

CITY           SKY/WX    TMP DP  RH WIND       PRES   REMARKS
IRON MOUNTAIN  CLOUDY    68  66  93 SE5       30.05R FOG
HOUGHTON       CLOUDY    63  61  93 E8        30.07R FOG
COPPER HARBOR    N/A     59  55  87 CALM      30.06F
$$

ABBREVIATIONS USED IN REMARKS
   TC - TEMPERATURE IN CELSIUS
  WCI - WIND CHILL INDEX
   HX - HEAT INDEX
  VSB - VISIBILITY




USA.gov is the U.S. government's official web portal to all federal, state and local government web resources and services.